Voltar ao catálogo

STARLINK-3893

AtivoComunicaçõesVLEO
NORAD 52579·PAYLOAD·🇺🇸 United States

Lançado May 13, 2022 de Vandenberg Space Force Base

Loading…

Próximas Passagens (próximas 24 horas)

TLE

AtualizadoSource: CelesTrak SupGP

Época: Sep 14, 2026, 22:20 UTC

1 52579C 22051AV  26257.93104167  .01347900  00000+0  67232-3 0  2574
2 52579  53.2109 319.6519 0004234   8.0392  93.5235 16.20063510    11

Acompanhe STARLINK-3893 em tempo real com AllMySat

Download on the App Store